Location: Newark
(35.4500°N, 118.9467°W)
Time: 01:38:57
(UTC+00:00)

N. Korean satellite - Visible Passes

Search period start: 23 January 2020 00:00
Search period end: 02 February 2020 00:00
Orbit: 454 x 507 km, 97.2° (Epoch: 22 January)

Date Brightness Start Highest point End Pass type
(mag) Time Alt. Az. Time Alt. Az. Time Alt. Az.
23 Jan 9.3 12:57:08 10° NE 12:59:49 20° E 13:02:30 10° SE visible
23 Jan 7.9 14:30:26 10° NNW 14:33:04 20° WNW 14:35:43 10° WSW visible
24 Jan 6.9 14:04:18 10° N 14:07:42 42° WNW 14:11:08 10° SSW visible
25 Jan 6.6 13:38:40 10° NNE 13:42:16 80° E 13:45:54 10° S visible
26 Jan 9.6 01:45:14 10° SW 01:47:49 20° W 01:50:25 10° NW visible
26 Jan 8.4 13:13:27 10° NNE 13:16:45 33° E 13:20:04 10° SSE visible
27 Jan 9.7 12:48:54 10° NE 12:51:09 16° E 12:53:24 10° SE visible
27 Jan 7.6 14:21:30 10° NNW 14:24:30 25° WNW 14:27:31 10° SW visible
28 Jan 6.6 13:55:34 10° N 13:59:06 56° WNW 14:02:42 10° SSW visible
29 Jan 10.1 02:03:27 10° WSW 02:04:46 12° W 02:06:05 10° WNW visible
29 Jan 7.2 13:30:03 10° NNE 13:33:39 60° E 13:37:15 10° S visible
30 Jan 8.9 13:05:00 10° NE 13:08:06 26° E 13:11:12 10° SSE visible
31 Jan 10.1 12:40:55 10° ENE 12:42:28 12° E 12:44:01 10° ESE visible
31 Jan 7.3 14:12:37 10° N 14:15:54 32° WNW 14:19:13 10° SW visible
01 Feb 6.5 13:46:51 10° N 13:50:29 76° WNW 13:54:09 10° SSW visible
